Terminal Aerodrome Forecast
Issued by NWS

Home | Current Version | Previous Version | Text Only | Print | Product List | Glossary On
Versions: 1 2 3 4 5 6 7 8 9 10 11 12
955
FTUS45 KVEF 111120
TAFBIH
TAF
KBIH 111120Z 1112/1212 32006KT P6SM SCT250
     FM111500 VRB05KT P6SM SCT250
     FM112300 17006KT P6SM SCT250
     FM120200 32005KT P6SM SCT250=

USA.gov is the U.S. government's official web portal to all federal, state and local government web resources and services.